www.pogodaiklimat.ru

Погода и климат >> Архив погоды >> Молдова >> Сороки


ПОГОДА в Сороках

  • Прогноз погоды в Сороках
  • Монитор погоды в Сороках
  • Климат города

АРХИВ ПОГОДЫ в Сороках

Время (UTC), дата Ветер
(напр.,м/с)
 
Видим.   Явления Облачность Т
(С)
Тd
(С)
f
(%)
Тe
(С)
Тes
(С)
Комфортность P
(гПа)
Po
(гПа)
Тmin
(С)
Tmax
(С)
R
(мм)
R24
(мм)
S
(см)
00 17.06 С 2 10 км гроза, ливневой дождь 8/8 600 м
[Cb cap]
+18.6 +17.6 94 +20 +20 1011.1 991.0
03 17.06 С 1 10 км {гроза, ливн. осадки} 10/10 1000 м
[Cb cap]
+18.1 +16.8 92 +19 +19 1010.8 990.7
06 17.06 СЗ 3 10 км {гроза, ливн. осадки} 10/10 600 м
[Cb cap]
+18.6 +17.4 93 +20 +20 1011.0 990.9 +18.0 9
09 17.06 В 1 10 км слабый ливневой дождь 10/5 600 м
[Cb cap As op]
+21.6 +19.2 86 +27 +29 душно 1011.3 991.4
12 17.06 ЮВ 2 20 км {ливн. осадки} 8/3 1000 м
[Cu med, cong Ac trans Ci fib]
+26.1 +18.8 64 +31 +38 очень
душно
1010.3 990.7
15 17.06 ЮВ 2 20 км 8/6 1000 м
[Cb cap Ac trans]
+25.1 +16.5 59 +29 +30 душно 1010.3 990.6
18 17.06 В 3 20 км в посл. час гроза 8/6 1000 м
[Cb cap As op]
+19.1 +15.0 77 +21 +21 комфорт 1012.2 992.1 +26.7 0.4
21 17.06 штиль 0 20 км 9/0
[Ac As]
+18.3 +15.4 83 +19 +19 1012.3 992.1
00 18.06 штиль 0 20 км 6/0
[Ac As]
+16.6 +15.1 91 +16 +16 1012.8 992.5
03 18.06 СЗ 1 10 км 9/4 600 м
[Cu hum Ac As]
+16.2 +14.8 91 +17 +17 1014.0 993.6
06 18.06 С 1 20 км 9/5 1000 м
[Cb calv Ac und]
+18.6 +16.4 87 +21 +23 комфорт 1013.1 992.7 +16.2
09 18.06 С 1 20 км 8/0
[Ac trans Ci fib]
+24.8 +18.1 66 +29 +43 душно 1013.8 993.9
12 18.06 В 3 20 км 6/4 1000 м
[Cu med, cong Ci fib]
+28.7 +13.4 39 +30 +38 жарко 1012.7 993.2
15 18.06 СВ 3 20 км 5/3 1000 м
[Cu med, cong Ac trans Ci fib]
+28.1 +12.9 39 +30 +32 жарко 1012.4 992.9
18 18.06 СВ 1 20 км 5/3 1000 м
[Cu med, cong Ci fib]
+23.9 +15.1 58 +27 +27 жарко 1013.3 993.5 +28.9
21 18.06 СЗ 2 20 км ясно +18.7 +15.9 84 +20 +20 1015.6 995.4
00 19.06 С 2 20 км ясно +16.3 +15.2 93 +16 +16 1016.2 995.8
03 19.06 СЗ 2 20 км в посл. час туман ясно +16.1 +15.3 95 +16 +16 1017.0 996.6
06 19.06 СЗ 1 20 км {туман} ясно +21.8 +16.3 71 +26 +35 душно 1017.2 997.2 +15.3
09 19.06 С 2 20 км ясно +26.6 +13.0 43 +28 +46 жарко 1017.2 997.5
12 19.06 С 2 20 км 6/6 1000 м
[Cu hum]
+28.8 +15.0 43 +31 +38 жарко 1016.6 997.0
15 19.06 СВ 2 20 км 5/5 1000 м
[Cu med, cong]
+29.3 +14.7 41 +32 +34 душно 1015.8 996.3
18 19.06 З 2 20 км {гроза} 5/3 1000 м
[Cu med, cong Ac trans]
+23.3 +18.2 73 +29 +29 душно 1016.8 996.9 +29.6
21 19.06 З 2 20 км ясно +20.5 +17.7 84 +25 +25 комфорт 1017.8 997.7
00 20.06 З 3 10 км ясно +19.2 +17.5 90 +21 +21 комфорт 1018.6 998.4
03 20.06 З 1 10 км ясно +18.5 +17.3 93 +20 +21 1019.2 998.9
06 20.06 СЗ 2 20 км ясно +23.7 +18.8 74 +28 +36 душно 1019.5 999.6 +17.8
09 20.06 С 4 20 км 3/3 1000 м
[Cu med, cong]
+27.9 +15.9 48 +31 +39 душно 1019.8 1000.1
12 20.06 СЗ 4 20 км 8/5 600 м
[Cu med, cong Ac trans]
+28.6 +14.4 42 +31 +34 жарко 1019.2 999.6
15 20.06 С 3 20 км 8/3 1000 м
[Cu med, cong Ac trans Ci fib]
+28.1 +13.6 41 +30 +32 жарко 1018.2 998.6
18 20.06 С 2 20 км 8/0
[Ci]
+23.8 +15.6 60 +27 +27 жарко 1018.2 998.3 +29.0
21 20.06 З 2 20 км ясно +19.8 +15.9 78 +23 +23 комфорт 1019.4 999.2
00 21.06 З 1 20 км ясно +18.1 +15.4 84 +19 +19 1019.5 999.2
03 21.06 С 1 20 км 8/0
[Ac cast]
+17.9 +16.1 89 +19 +19 1019.0 998.7
06 21.06 ЮВ 1 20 км 8/0
[Ci fib]
+22.7 +16.7 69 +27 +35 душно 1018.5 998.5 +17.2
09 21.06 З 1 20 км 8/3 1000 м
[Cu hum Ci fib]
+26.6 +13.4 44 +29 +41 жарко 1016.8 997.1
12 21.06 С 1 20 км 8/8 1000 м
[Cu med, cong Ci fib]
+27.7 +13.6 42 +30 +33 жарко 1014.7 995.1
15 21.06 штиль 0 20 км 4/3 1000 м
[Cu hum Ci fib]
+29.2 +13.8 39 +31 +36 жарко 1012.6 993.1
18 21.06 Ю 1 20 км 8/4 1000 м
[Cu med, cong Ci fib]
+25.2 +16.4 58 +29 +29 душно 1012.4 992.7 +29.7
21 21.06 Ю 2 20 км 4/0
[Ci fib]
+23.4 +15.5 61 +28 +28 душно 1011.3 991.5
00 22.06 Ю 2 20 км ясно +20.8 +16.0 74 +25 +25 комфорт 1010.0 990.1
03 22.06 В 1 20 км 8/0
[Ci fib]
+19.0 +16.0 83 +21 +22 комфорт 1009.8 989.7
06 22.06 Ю 1 20 км 4/0
[Ac lent Ci fib]
+24.7 +17.2 63 +29 +35 душно 1008.8 989.2 +18.4
09 22.06 СЗ 4 20 км 9/6 1000 м
[Cu med, cong Ci fib]
+27.8 +17.4 53 +32 +36 душно 1008.7 989.3
12 22.06 С 8
{12}
20 км 9/3 1000 м
[Cu med, cong Ac trans Ci fib]
+25.4 +17.9 63 +30 +31 душно 1008.2 988.6
15 22.06 С 7
{12}
20 км в посл. час гроза 9/4 1000 м
[Cb cap Ac trans]
+23.3 +15.4 61 +28 +28 душно 1009.1 989.3
18 22.06 С 5
{12}
20 км {гроза} 9/4 1000 м
[Cb calv Ac As]
+19.2 +11.8 62 +20 +20 1011.2 991.1 +28.3
21 22.06 СЗ 5 20 км гроза, ливневой дождь 10/10 600 м
[Cb cap]
+15.4 +13.6 89 +14 +14 1012.2 991.8
00 23.06 С 3 10 км {гроза, ливн. осадки} 10/10 600 м
[Cb calv]
+14.7 +13.2 91 +14 +14 1010.3 989.9
03 23.06 З 5 2000 м дымка 10/10 600 м
[St]
+13.9 +13.0 94 +12 +12 1010.1 989.7
06 23.06 С 5 2000 м слабый дождь {ливн. осадки} 10/10 600 м
[Frnb Ns]
+13.3 +12.4 94 +11 +11 1011.0 990.5 +13.1 5
09 23.06 С 7 10 км слабый ливневой дождь 10/10 1000 м
[Cb cap]
+12.4 +11.1 92 +9 +9 1011.5 990.9
12 23.06 З 7 20 км в посл. час ливневой дождь 10/10 1000 м
[Cb cap]
+12.5 +10.6 88 +10 +10 1012.8 992.2
15 23.06 З 6 20 км слабый ливневой дождь 9/9 1000 м
[Cb cap]
+12.5 +10.2 86 +10 +10 1013.8 993.2
18 23.06 З 3 20 км {ливн. осадки} 3/3 1000 м
[Cu hum]
+12.1 +9.5 84 +10 +10 1014.3 993.6 +14.3 3
21 23.06 З 4 20 км ясно +9.6 +8.0 90 +7 +7 1015.6 994.7

 

Местоположение метеостанции Сороки (Молдова): широта 48.20 долгота 28.30 высота над уровнем моря 173 м.

В архиве по умолчанию представлена погода в Сороках за последнюю неделю. Архивные данные за месяц целиком и за предыдущие месяцы, начиная с января 2011 года, Вы можете получить, выбрав интересующий диапазон дат из раскрывающегося списка и нажав кнопку "Ввод!".


*Определитесь, кто Вы:
робот инопланетянин человек

Внимание! Время в таблицах - всемирное. Для получения местного времени необходимо прибавить поправку, которая в Сороках равна 2 ч.

Смотрите также архив погоды в соседних городах и на ближайших метеорологических станциях:

Погода в Каменке (Молдова) (35 км)
Погода в Могилев-Подольском (Винницкая область, Украина) (47 км)
Погода в Бельцах (Молдова) (53 км)
Погода в Рыбнице (Молдова) (72 км)
Погода в Новоднестровске (Черновицкая область, Украина) (75 км)
Погода в Фалештах (Молдова) (82 км)
Погода в Stanca Stefanesti (Румыния) (90 км)
Погода в Бричанах (Молдова) (92 км)
Погода в Бравичах (Молдова) (93 км)
Погода в Жмеринке (Винницкая область, Украина) (96 км)

Пояснения к столбцам:

Ветер - указаны скорость ветра в м/с - средняя за 10 мин, порывы в срок и между сроками (в фигурных скобках) и направление, откуда дует ветер: С - северный, СВ - северо-восточный, В - восточный, ЮВ - юго-восточный, Ю - южный, ЮЗ - юго-западный, З - западный, СЗ - северо-западный.
Видимость - горизонтальная дальность видимости в метрах или километрах. При видимости от 1 до 10 км при отсутствии осадков обычно наблюдается дымка, при ухудшении видимости до 1 км и менее - туман. В сухую погоду видимость может ухудшаться дымом, пылью или мглою.
Явления - указаны атмосферные явления, наблюдавшиеся в срок или в последний час перед сроком; фигурными скобками обозначены явления, наблюдавшиеся между сроками (за 1-3 часа до срока); квадратными скобками обозначены град или гололедные отложения с указанием их диаметра в мм.
Облачность - указаны через наклонную черту общая и нижняя облачность в баллах и высота нижней границы облаков в метрах; квадратными скобками обозначены формы облаков: Ci - перистые, Cs - перисто-слоистые, Cc - перисто-кучевые, Ac - высококучевые, As - высокослоистые, Sc - слоисто-кучевые, Ns - слоисто-дождевые, Cu - кучевые, Cb - кучево-дождевые. Подробнее классификацию облаков см. в Атласе облаков (PDF).
T - Температура воздуха - температура, измеренная на высоте 2 м над землей.
Td - Температура точки росы - температура, при понижении до которой содержащийся в воздухе водяной пар достигнет насыщения.
f - Относительная влажность воздуха - влажноcть воздуха, измеренная на высоте 2 м над землей.
Te - Эффективная температура - температура, которую ощущает одетый по сезону человек в тени. Характеристика душности погоды. При расчете учитывается влияние влажности воздуха и скорости ветра на теплоощущения человека.
Tes - Эффективная температура на солнце - температура, которую ощущает человек, с поправкой на солнечный нагрев. Характеристика знойности погоды. Зависит от высоты солнца над горизонтом, облачности и скорости ветра. Ночью, в пасмурную погоду, а также при ветре 12 м/с и более поправка равна нулю.
P - Атмосферное давление - приведенное к уровню моря атмосферное давление.
Po - Атмосферное давление - измеренное на уровне метеостанции атмосферное давление.
Tmin - Минимальная температура - минимум температуры воздуха на высоте 2 м над землей.
Tmax - Максимальная температура - максимум температуры воздуха на высоте 2 м над землей.
R - Количество осадков - Количество выпавших осадков за период времени, мм. При наведении курсора мыши на число - период времени, за который выпало указанное количество осадков.
R24 - Количество осадков - Количество выпавших осадков за 24 часа, мм.
S - Снежный покров - Высота снежного покрова, см. При наведении курсора мыши на число - состояние снежного покрова и степень покрытия местности в баллах.